Time,TemperatureF,DewpointF,PressureIn,WindDirection,WindDirectionDegrees,WindSpeedMPH,WindSpeedGustMPH,Humidity,HourlyPrecipIn,Conditions,Clouds,dailyrainin,SoftwareType,DateUTC
2013-03-26 00:03:00,58.7,18.9,29.90,NNE,32,5.0,6.0,21,0.00,,---,0.00,VWS V14.01,2013-03-26 07:03:00,
2013-03-26 00:09:00,58.4,18.6,29.90,NNE,15,4.0,6.0,21,0.00,,---,0.00,VWS V14.01,2013-03-26 07:09:00,
2013-03-26 00:14:00,58.3,18.6,29.90,NNE,27,3.0,6.0,21,0.00,,---,0.00,VWS V14.01,2013-03-26 07:14:00,
2013-03-26 00:19:00,57.9,19.3,29.90,NE,49,2.0,6.0,22,0.00,,---,0.00,VWS V14.01,2013-03-26 07:19:00,
2013-03-26 00:24:00,57.2,19.8,29.90,NNE,23,3.0,6.0,23,0.00,,---,0.00,VWS V14.01,2013-03-26 07:24:00,
2013-03-26 00:29:00,56.8,19.4,29.90,NNE,26,5.0,6.0,23,0.00,,---,0.00,VWS V14.01,2013-03-26 07:29:00,
2013-03-26 00:34:00,56.9,19.5,29.89,NNE,26,4.0,5.0,23,0.00,,---,0.00,VWS V14.01,2013-03-26 07:34:00,
2013-03-26 00:39:00,56.8,19.4,29.89,NNE,25,2.0,5.0,23,0.00,,---,0.00,VWS V14.01,2013-03-26 07:39:00,
2013-03-26 00:44:00,56.4,19.1,29.89,North,360,3.0,5.0,23,0.00,,---,0.00,VWS V14.01,2013-03-26 07:44:00,
2013-03-26 00:49:00,56.5,19.2,29.89,NE,43,2.0,5.0,23,0.00,,---,0.00,VWS V14.01,2013-03-26 07:49:00,
2013-03-26 00:54:00,56.5,19.2,29.89,North,11,1.0,5.0,23,0.00,,---,0.00,VWS V14.01,2013-03-26 07:54:00,
2013-03-26 00:59:00,56.5,19.2,29.89,NE,44,3.0,5.0,23,0.00,,---,0.00,VWS V14.01,2013-03-26 07:59:00,
2013-03-26 01:04:00,56.6,19.2,29.89,NE,38,0.0,2.0,23,0.00,,---,0.00,VWS V14.01,2013-03-26 08:04:00,
2013-03-26 01:09:00,56.2,19.9,29.89,NE,42,4.0,5.0,24,0.00,,---,0.00,VWS V14.01,2013-03-26 08:09:00,
2013-03-26 01:15:00,55.9,19.6,29.89,NNE,19,2.0,5.0,24,0.00,,---,0.00,VWS V14.01,2013-03-26 08:15:00,
2013-03-26 01:20:00,55.5,19.3,29.89,NE,46,2.0,5.0,24,0.00,,---,0.00,VWS V14.01,2013-03-26 08:20:00,
2013-03-26 01:25:00,55.5,19.3,29.89,NE,44,1.0,5.0,24,0.00,,---,0.00,VWS V14.01,2013-03-26 08:25:00,
2013-03-26 01:30:00,55.5,20.3,29.89,NNE,27,2.0,5.0,25,0.00,,---,0.00,VWS V14.01,2013-03-26 08:30:00,
2013-03-26 01:35:00,55.3,20.1,29.89,NE,40,0.0,1.0,25,0.00,,---,0.00,VWS V14.01,2013-03-26 08:35:00,
2013-03-26 01:40:00,54.8,19.7,29.89,South,169,2.0,2.0,25,0.00,,---,0.00,VWS V14.01,2013-03-26 08:40:00,
2013-03-26 01:45:00,53.9,19.8,29.89,East,91,0.0,2.0,26,0.00,,---,0.00,VWS V14.01,2013-03-26 08:45:00,
2013-03-26 01:50:00,53.4,20.3,29.89,East,90,0.0,2.0,27,0.00,,---,0.00,VWS V14.01,2013-03-26 08:50:00,
2013-03-26 01:55:00,52.8,20.6,29.89,ENE,73,0.0,2.0,28,0.00,,---,0.00,VWS V14.01,2013-03-26 08:55:00,
2013-03-26 02:00:00,52.9,20.7,29.88,ENE,74,1.0,2.0,28,0.00,,---,0.00,VWS V14.01,2013-03-26 09:00:00,
2013-03-26 02:05:00,52.9,20.7,29.88,NE,36,2.0,2.0,28,0.00,,---,0.00,VWS V14.01,2013-03-26 09:05:00,
2013-03-26 02:11:00,52.4,21.1,29.88,NE,50,3.0,4.0,29,0.00,,---,0.00,VWS V14.01,2013-03-26 09:11:00,
2013-03-26 02:16:00,52.3,21.0,29.88,NE,47,1.0,4.0,29,0.00,,---,0.00,VWS V14.01,2013-03-26 09:16:00,
2013-03-26 02:21:00,52.2,20.9,29.88,NE,50,2.0,4.0,29,0.00,,---,0.00,VWS V14.01,2013-03-26 09:21:00,
2013-03-26 02:26:00,52.0,21.5,29.88,NE,37,1.0,4.0,30,0.00,,---,0.00,VWS V14.01,2013-03-26 09:26:00,
2013-03-26 02:31:00,51.7,21.3,29.88,NE,50,0.0,4.0,30,0.00,,---,0.00,VWS V14.01,2013-03-26 09:31:00,
2013-03-26 02:36:00,51.3,21.7,29.88,NE,41,1.0,1.0,31,0.00,,---,0.00,VWS V14.01,2013-03-26 09:36:00,
2013-03-26 02:42:00,51.3,20.9,29.87,North,6,2.0,5.0,30,0.00,,---,0.00,VWS V14.01,2013-03-26 09:42:00,
2013-03-26 02:47:00,51.3,21.7,29.87,NE,39,1.0,5.0,31,0.00,,---,0.00,VWS V14.01,2013-03-26 09:47:00,
2013-03-26 02:52:00,51.1,21.5,29.87,NE,50,5.0,5.0,31,0.00,,---,0.00,VWS V14.01,2013-03-26 09:52:00,
2013-03-26 02:57:00,51.0,22.2,29.87,NE,49,3.0,5.0,32,0.00,,---,0.00,VWS V14.01,2013-03-26 09:57:00,
2013-03-26 03:02:00,50.9,22.1,29.87,NE,47,2.0,5.0,32,0.00,,---,0.00,VWS V14.01,2013-03-26 10:02:00,
2013-03-26 03:07:00,50.9,22.1,29.87,NNE,33,3.0,4.0,32,0.00,,---,0.00,VWS V14.01,2013-03-26 10:07:00,
2013-03-26 03:12:00,51.5,21.1,29.87,NNE,23,3.0,6.0,30,0.00,,---,0.00,VWS V14.01,2013-03-26 10:12:00,
2013-03-26 03:17:00,52.1,20.8,29.86,NNE,24,3.0,6.0,29,0.00,,---,0.00,VWS V14.01,2013-03-26 10:17:00,
2013-03-26 03:22:00,53.0,20.8,29.86,NE,47,2.0,6.0,28,0.00,,---,0.00,VWS V14.01,2013-03-26 10:22:00,
2013-03-26 03:27:00,53.2,21.0,29.86,NE,53,1.0,6.0,28,0.00,,---,0.00,VWS V14.01,2013-03-26 10:27:00,
2013-03-26 03:32:00,52.7,21.4,29.86,NE,53,1.0,6.0,29,0.00,,---,0.00,VWS V14.01,2013-03-26 10:32:00,
2013-03-26 03:37:00,52.5,21.2,29.86,NE,42,3.0,4.0,29,0.00,,---,0.00,VWS V14.01,2013-03-26 10:37:00,
2013-03-26 03:42:00,52.7,20.5,29.86,NE,39,3.0,5.0,28,0.00,,---,0.00,VWS V14.01,2013-03-26 10:42:00,
2013-03-26 03:47:00,52.9,20.7,29.86,NE,42,4.0,5.0,28,0.00,,---,0.00,VWS V14.01,2013-03-26 10:47:00,
2013-03-26 03:52:00,52.8,21.4,29.86,NE,44,5.0,6.0,29,0.00,,---,0.00,VWS V14.01,2013-03-26 10:52:00,
2013-03-26 03:57:00,51.4,21.8,29.86,NE,45,5.0,7.0,31,0.00,,---,0.00,VWS V14.01,2013-03-26 10:57:00,
2013-03-26 04:02:00,50.8,22.0,29.86,NE,47,5.0,7.0,32,0.00,,---,0.00,VWS V14.01,2013-03-26 11:02:00,
2013-03-26 04:08:00,50.5,21.8,29.86,NE,37,4.0,6.0,32,0.00,,---,0.00,VWS V14.01,2013-03-26 11:08:00,
2013-03-26 04:13:00,50.2,21.5,29.86,NE,44,3.0,6.0,32,0.00,,---,0.00,VWS V14.01,2013-03-26 11:13:00,
2013-03-26 04:18:00,50.5,21.8,29.86,NE,39,3.0,6.0,32,0.00,,---,0.00,VWS V14.01,2013-03-26 11:18:00,
2013-03-26 04:23:00,50.8,21.3,29.86,North,11,4.0,6.0,31,0.00,,---,0.00,VWS V14.01,2013-03-26 11:23:00,
2013-03-26 04:28:00,51.2,21.6,29.86,NE,39,2.0,6.0,31,0.00,,---,0.00,VWS V14.01,2013-03-26 11:28:00,
2013-03-26 04:33:00,51.6,21.2,29.86,NNE,30,4.0,6.0,30,0.00,,---,0.00,VWS V14.01,2013-03-26 11:33:00,
2013-03-26 04:38:00,52.0,21.5,29.86,NE,34,3.0,5.0,30,0.00,,---,0.00,VWS V14.01,2013-03-26 11:38:00,
2013-03-26 04:43:00,52.3,21.0,29.86,NNE,33,2.0,5.0,29,0.00,,---,0.00,VWS V14.01,2013-03-26 11:43:00,
2013-03-26 04:48:00,52.4,21.1,29.86,NNE,18,2.0,5.0,29,0.00,,---,0.00,VWS V14.01,2013-03-26 11:48:00,
2013-03-26 04:53:00,52.6,21.3,29.86,NNE,18,0.0,5.0,29,0.00,,---,0.00,VWS V14.01,2013-03-26 11:53:00,
2013-03-26 04:58:00,52.5,21.2,29.86,NE,44,0.0,5.0,29,0.00,,---,0.00,VWS V14.01,2013-03-26 11:58:00,
2013-03-26 05:03:00,52.1,21.6,29.86,NE,44,0.0,5.0,30,0.00,,---,0.00,VWS V14.01,2013-03-26 12:03:00,
2013-03-26 05:08:00,51.1,22.3,29.86,NE,44,1.0,1.0,32,0.00,,---,0.00,VWS V14.01,2013-03-26 12:08:00,
2013-03-26 05:13:00,50.1,22.1,29.86,NE,42,0.0,1.0,33,0.00,,---,0.00,VWS V14.01,2013-03-26 12:13:00,
2013-03-26 05:18:00,49.4,22.2,29.87,NE,46,0.0,2.0,34,0.00,,---,0.00,VWS V14.01,2013-03-26 12:18:00,
2013-03-26 05:23:00,48.8,23.0,29.87,NE,44,1.0,2.0,36,0.00,,---,0.00,VWS V14.01,2013-03-26 12:23:00,
2013-03-26 05:28:00,48.3,22.6,29.87,NE,37,1.0,2.0,36,0.00,,---,0.00,VWS V14.01,2013-03-26 12:28:00,
2013-03-26 05:34:00,48.0,23.0,29.87,NE,37,0.0,0.0,37,0.00,,---,0.00,VWS V14.01,2013-03-26 12:34:00,
2013-03-26 05:39:00,47.8,22.8,29.87,NE,37,0.0,1.0,37,0.00,,---,0.00,VWS V14.01,2013-03-26 12:39:00,
2013-03-26 05:44:00,48.1,23.1,29.87,NNE,25,3.0,3.0,37,0.00,,---,0.00,VWS V14.01,2013-03-26 12:44:00,
2013-03-26 05:49:00,48.8,22.4,29.87,NNE,30,1.0,4.0,35,0.00,,---,0.00,VWS V14.01,2013-03-26 12:49:00,
2013-03-26 05:54:00,49.1,22.6,29.87,NNE,29,3.0,4.0,35,0.00,,---,0.00,VWS V14.01,2013-03-26 12:54:00,
2013-03-26 05:59:00,49.6,22.4,29.88,NNE,24,2.0,4.0,34,0.00,,---,0.00,VWS V14.01,2013-03-26 12:59:00,
2013-03-26 06:04:00,49.9,22.0,29.88,NNE,27,0.0,2.0,33,0.00,,---,0.00,VWS V14.01,2013-03-26 13:04:00,
2013-03-26 06:09:00,50.1,22.1,29.88,NE,41,1.0,3.0,33,0.00,,---,0.00,VWS V14.01,2013-03-26 13:09:00,
2013-03-26 06:14:00,50.3,21.6,29.88,NE,40,1.0,3.0,32,0.00,,---,0.00,VWS V14.01,2013-03-26 13:14:00,
2013-03-26 06:19:00,50.5,21.8,29.88,NE,40,0.0,3.0,32,0.00,,---,0.00,VWS V14.01,2013-03-26 13:19:00,
2013-03-26 06:24:00,50.4,21.7,29.89,NE,41,2.0,3.0,32,0.00,,---,0.00,VWS V14.01,2013-03-26 13:24:00,
2013-03-26 06:29:00,50.4,21.7,29.89,NE,53,1.0,3.0,32,0.00,,---,0.00,VWS V14.01,2013-03-26 13:29:00,
2013-03-26 06:34:00,50.2,22.2,29.89,NE,50,1.0,2.0,33,0.00,,---,0.00,VWS V14.01,2013-03-26 13:34:00,
2013-03-26 06:39:00,49.8,22.6,29.89,NE,47,2.0,3.0,34,0.00,,---,0.00,VWS V14.01,2013-03-26 13:39:00,
2013-03-26 06:44:00,49.6,22.4,29.89,NE,50,3.0,3.0,34,0.00,,---,0.00,VWS V14.01,2013-03-26 13:44:00,
2013-03-26 06:49:00,49.6,22.4,29.89,NE,47,2.0,4.0,34,0.00,,---,0.00,VWS V14.01,2013-03-26 13:49:00,
2013-03-26 06:54:00,49.8,22.6,29.89,NE,51,2.0,4.0,34,0.00,,---,0.00,VWS V14.01,2013-03-26 13:54:00,
2013-03-26 07:00:00,50.1,22.8,29.89,NE,47,2.0,4.0,34,0.00,,---,0.00,VWS V14.01,2013-03-26 14:00:00,
2013-03-26 07:05:00,50.5,22.5,29.89,NE,49,2.0,3.0,33,0.00,,---,0.00,VWS V14.01,2013-03-26 14:05:00,
2013-03-26 07:10:00,50.9,22.8,29.90,NE,51,1.0,3.0,33,0.00,,---,0.00,VWS V14.01,2013-03-26 14:10:00,
2013-03-26 07:15:00,51.0,22.9,29.90,NE,51,2.0,3.0,33,0.00,,---,0.00,VWS V14.01,2013-03-26 14:15:00,
2013-03-26 07:20:00,51.2,22.4,29.90,NE,47,1.0,3.0,32,0.00,,---,0.00,VWS V14.01,2013-03-26 14:20:00,
2013-03-26 07:25:00,51.8,22.9,29.90,NE,48,0.0,3.0,32,0.00,,---,0.00,VWS V14.01,2013-03-26 14:25:00,
2013-03-26 07:30:00,52.8,23.0,29.91,ENE,73,2.0,3.0,31,0.00,,---,0.00,VWS V14.01,2013-03-26 14:30:00,
2013-03-26 07:35:00,53.8,23.1,29.91,ENE,58,1.0,4.0,30,0.00,,---,0.00,VWS V14.01,2013-03-26 14:35:00,
2013-03-26 07:40:00,54.8,23.2,29.91,ENE,63,2.0,4.0,29,0.00,,---,0.00,VWS V14.01,2013-03-26 14:40:00,
2013-03-26 07:45:00,55.8,22.3,29.91,NE,53,2.0,4.0,27,0.00,,---,0.00,VWS V14.01,2013-03-26 14:45:00,
2013-03-26 07:50:00,56.8,23.2,29.91,NE,47,4.0,5.0,27,0.00,,---,0.00,VWS V14.01,2013-03-26 14:50:00,
2013-03-26 07:55:00,58.0,22.4,29.91,NE,38,3.0,7.0,25,0.00,,---,0.00,VWS V14.01,2013-03-26 14:55:00,
2013-03-26 08:00:00,59.1,21.4,29.91,NNE,13,5.0,7.0,23,0.00,,---,0.00,VWS V14.01,2013-03-26 15:00:00,
2013-03-26 08:05:00,59.9,21.0,29.91,NE,53,3.0,8.0,22,0.00,,---,0.00,VWS V14.01,2013-03-26 15:05:00,
2013-03-26 08:10:00,60.7,21.7,29.91,NNE,26,2.0,8.0,22,0.00,,---,0.00,VWS V14.01,2013-03-26 15:10:00,
2013-03-26 08:15:00,61.4,21.1,29.92,NNW,329,1.0,8.0,21,0.00,,---,0.00,VWS V14.01,2013-03-26 15:15:00,
2013-03-26 08:20:00,62.1,21.7,29.92,NE,46,2.0,8.0,21,0.00,,---,0.00,VWS V14.01,2013-03-26 15:20:00,
2013-03-26 08:25:00,62.7,22.2,29.92,NE,41,4.0,8.0,21,0.00,,---,0.00,VWS V14.01,2013-03-26 15:25:00,
2013-03-26 08:31:00,63.1,21.4,29.92,NNE,22,2.0,8.0,20,0.00,,---,0.00,VWS V14.01,2013-03-26 15:31:00,
2013-03-26 08:36:00,63.6,21.8,29.92,NE,34,3.0,4.0,20,0.00,,---,0.00,VWS V14.01,2013-03-26 15:36:00,
2013-03-26 08:41:00,63.9,22.1,29.92,NE,46,1.0,4.0,20,0.00,,---,0.00,VWS V14.01,2013-03-26 15:41:00,
2013-03-26 08:46:00,64.3,21.2,29.92,NNE,14,2.0,6.0,19,0.00,,---,0.00,VWS V14.01,2013-03-26 15:46:00,
2013-03-26 08:51:00,64.8,21.6,29.92,NE,50,4.0,6.0,19,0.00,,---,0.00,VWS V14.01,2013-03-26 15:51:00,
2013-03-26 08:56:00,64.8,21.6,29.92,NE,40,2.0,6.0,19,0.00,,---,0.00,VWS V14.01,2013-03-26 15:56:00,
2013-03-26 09:01:00,65.3,24.4,29.92,ENE,65,1.0,6.0,21,0.00,,---,0.00,VWS V14.01,2013-03-26 16:01:00,
2013-03-26 09:06:00,66.4,22.9,29.92,ENE,76,2.0,2.0,19,0.00,,---,0.00,VWS V14.01,2013-03-26 16:06:00,
2013-03-26 09:11:00,66.8,22.0,29.92,ENE,60,2.0,4.0,18,0.00,,---,0.00,VWS V14.01,2013-03-26 16:11:00,
2013-03-26 09:16:00,67.2,22.3,29.91,NE,53,2.0,4.0,18,0.00,,---,0.00,VWS V14.01,2013-03-26 16:16:00,
2013-03-26 09:22:00,67.7,21.4,29.91,NE,37,2.0,7.0,17,0.00,,---,0.00,VWS V14.01,2013-03-26 16:22:00,
2013-03-26 09:27:00,68.7,22.2,29.91,NNW,340,3.0,7.0,17,0.00,,---,0.00,VWS V14.01,2013-03-26 16:27:00,
2013-03-26 09:32:00,69.6,19.9,29.91,NE,55,2.0,7.0,15,0.00,,---,0.00,VWS V14.01,2013-03-26 16:32:00,
2013-03-26 09:37:00,70.3,22.0,29.91,NNE,29,0.0,3.0,16,0.00,,---,0.00,VWS V14.01,2013-03-26 16:37:00,
2013-03-26 09:42:00,70.8,20.9,29.91,ENE,63,1.0,5.0,15,0.00,,---,0.00,VWS V14.01,2013-03-26 16:42:00,
2013-03-26 09:47:00,71.8,21.7,29.91,NE,52,1.0,5.0,15,0.00,,---,0.00,VWS V14.01,2013-03-26 16:47:00,
2013-03-26 09:52:00,73.1,21.1,29.91,NNE,18,0.0,5.0,14,0.00,,---,0.00,VWS V14.01,2013-03-26 16:52:00,
2013-03-26 09:57:00,73.6,19.8,29.90,West,280,1.0,5.0,13,0.00,,---,0.00,VWS V14.01,2013-03-26 16:57:00,
2013-03-26 10:02:00,74.1,20.2,29.90,West,270,1.0,5.0,13,0.00,,---,0.00,VWS V14.01,2013-03-26 17:02:00,
2013-03-26 10:07:00,74.7,20.6,29.90,South,190,0.0,3.0,13,0.00,,---,0.00,VWS V14.01,2013-03-26 17:07:00,
2013-03-26 10:12:00,75.8,21.5,29.90,SW,231,0.0,3.0,13,0.00,,---,0.00,VWS V14.01,2013-03-26 17:12:00,
2013-03-26 10:17:00,76.1,19.9,29.90,WSW,252,2.0,4.0,12,0.00,,---,0.00,VWS V14.01,2013-03-26 17:17:00,
2013-03-26 10:22:00,75.5,19.4,29.90,SW,219,2.0,4.0,12,0.00,,---,0.00,VWS V14.01,2013-03-26 17:22:00,
2013-03-26 10:27:00,75.8,19.6,29.89,WSW,256,1.0,4.0,12,0.00,,---,0.00,VWS V14.01,2013-03-26 17:27:00,
2013-03-26 10:33:00,76.3,18.0,29.89,South,176,2.0,9.0,11,0.00,,---,0.00,VWS V14.01,2013-03-26 17:33:00,
2013-03-26 10:38:00,76.6,18.2,29.89,SSW,194,2.0,4.0,11,0.00,,---,0.00,VWS V14.01,2013-03-26 17:38:00,
2013-03-26 10:43:00,77.1,18.6,29.89,ESE,104,0.0,5.0,11,0.00,,---,0.00,VWS V14.01,2013-03-26 17:43:00,
2013-03-26 10:48:00,77.8,16.9,29.89,WSW,247,3.0,5.0,10,0.00,,---,0.00,VWS V14.01,2013-03-26 17:48:00,
2013-03-26 10:53:00,78.7,19.8,29.89,WNW,298,0.0,5.0,11,0.00,,---,0.00,VWS V14.01,2013-03-26 17:53:00,
2013-03-26 10:58:00,79.8,16.0,29.88,WSW,250,1.0,5.0,9,0.00,,---,0.00,VWS V14.01,2013-03-26 17:58:00,
2013-03-26 11:03:00,79.7,15.9,29.88,SSE,166,2.0,7.0,9,0.00,,---,0.00,VWS V14.01,2013-03-26 18:03:00,
2013-03-26 11:08:00,79.4,18.1,29.88,South,170,2.0,9.0,10,0.00,,---,0.00,VWS V14.01,2013-03-26 18:08:00,
2013-03-26 11:13:00,79.4,13.0,29.88,South,180,4.0,10.0,8,0.00,,---,0.00,VWS V14.01,2013-03-26 18:13:00,
2013-03-26 11:18:00,79.2,9.9,29.88,SSE,163,6.0,10.0,7,0.00,,---,0.00,VWS V14.01,2013-03-26 18:18:00,
2013-03-26 11:23:00,79.3,12.9,29.88,ESE,122,3.0,12.0,8,0.00,,---,0.00,VWS V14.01,2013-03-26 18:23:00,
2013-03-26 11:28:00,79.7,13.2,29.87,SSW,212,5.0,12.0,8,0.00,,---,0.00,VWS V14.01,2013-03-26 18:28:00,
2013-03-26 11:33:00,79.6,13.2,29.87,WSW,253,7.0,12.0,8,0.00,,---,0.00,VWS V14.01,2013-03-26 18:33:00,
2013-03-26 11:38:00,80.1,13.5,29.87,SSE,155,6.0,9.0,8,0.00,,---,0.00,VWS V14.01,2013-03-26 18:38:00,
2013-03-26 11:43:00,80.4,13.8,29.87,SW,228,6.0,10.0,8,0.00,,---,0.00,VWS V14.01,2013-03-26 18:43:00,
2013-03-26 11:48:00,80.2,10.6,29.87,SSE,167,7.0,12.0,7,0.00,,---,0.00,VWS V14.01,2013-03-26 18:48:00,
2013-03-26 11:54:00,80.1,10.5,29.86,SSW,212,9.0,12.0,7,0.00,,---,0.00,VWS V14.01,2013-03-26 18:54:00,
2013-03-26 11:59:00,80.8,11.0,29.86,SSW,208,4.0,12.0,7,0.00,,---,0.00,VWS V14.01,2013-03-26 18:59:00,
2013-03-26 12:04:00,81.0,11.2,29.86,SW,231,3.0,7.0,7,0.00,,---,0.00,VWS V14.01,2013-03-26 19:04:00,
2013-03-26 12:09:00,81.3,11.4,29.86,SW,230,5.0,10.0,7,0.00,,---,0.00,VWS V14.01,2013-03-26 19:09:00,
2013-03-26 12:14:00,81.2,7.9,29.86,WSW,243,6.0,10.0,6,0.00,,---,0.00,VWS V14.01,2013-03-26 19:14:00,
2013-03-26 12:19:00,81.5,11.6,29.86,ESE,118,1.0,10.0,7,0.00,,---,0.00,VWS V14.01,2013-03-26 19:19:00,
2013-03-26 12:24:00,82.0,11.9,29.85,SSE,160,4.0,11.0,7,0.00,,---,0.00,VWS V14.01,2013-03-26 19:24:00,
2013-03-26 12:29:00,81.9,8.4,29.85,SSE,162,8.0,12.0,6,0.00,,---,0.00,VWS V14.01,2013-03-26 19:29:00,
2013-03-26 12:34:00,82.3,12.1,29.85,SSE,161,3.0,9.0,7,0.00,,---,0.00,VWS V14.01,2013-03-26 19:34:00,
2013-03-26 12:39:00,82.6,12.4,29.85,WSW,256,4.0,9.0,7,0.00,,---,0.00,VWS V14.01,2013-03-26 19:39:00,
2013-03-26 12:44:00,82.5,12.3,29.85,SE,132,3.0,13.0,7,0.00,,---,0.00,VWS V14.01,2013-03-26 19:44:00,
2013-03-26 12:49:00,83.2,9.3,29.84,SSW,197,6.0,13.0,6,0.00,,---,0.00,VWS V14.01,2013-03-26 19:49:00,
2013-03-26 12:55:00,83.1,9.3,29.84,South,169,6.0,13.0,6,0.00,,---,0.00,VWS V14.01,2013-03-26 19:55:00,
2013-03-26 13:00:00,82.7,9.0,29.84,SE,124,4.0,13.0,6,0.00,,---,0.00,VWS V14.01,2013-03-26 20:00:00,
2013-03-26 13:05:00,83.0,9.2,29.84,SSW,201,4.0,8.0,6,0.00,,---,0.00,VWS V14.01,2013-03-26 20:05:00,
2013-03-26 13:10:00,82.9,9.1,29.84,SE,138,5.0,10.0,6,0.00,,---,0.00,VWS V14.01,2013-03-26 20:10:00,
2013-03-26 13:15:00,83.0,12.6,29.83,South,186,5.0,13.0,7,0.00,,---,0.00,VWS V14.01,2013-03-26 20:15:00,
2013-03-26 13:20:00,83.2,9.3,29.83,SW,225,1.0,13.0,6,0.00,,---,0.00,VWS V14.01,2013-03-26 20:20:00,
2013-03-26 13:25:00,83.8,13.2,29.83,WSW,245,8.0,13.0,7,0.00,,---,0.00,VWS V14.01,2013-03-26 20:25:00,
2013-03-26 13:30:00,84.1,10.0,29.83,SSE,162,2.0,13.0,6,0.00,,---,0.00,VWS V14.01,2013-03-26 20:30:00,
2013-03-26 13:35:00,83.5,9.6,29.83,NE,36,2.0,11.0,6,0.00,,---,0.00,VWS V14.01,2013-03-26 20:35:00,
2013-03-26 13:40:00,83.6,13.1,29.82,SE,125,2.0,11.0,7,0.00,,---,0.00,VWS V14.01,2013-03-26 20:40:00,
2013-03-26 13:45:00,83.9,9.8,29.82,SSW,203,2.0,11.0,6,0.00,,---,0.00,VWS V14.01,2013-03-26 20:45:00,
2013-03-26 13:50:00,83.6,9.6,29.82,SW,233,1.0,11.0,6,0.00,,---,0.00,VWS V14.01,2013-03-26 20:50:00,
2013-03-26 13:55:00,83.9,9.8,29.82,ESE,115,3.0,11.0,6,0.00,,---,0.00,VWS V14.01,2013-03-26 20:55:00,
2013-03-26 14:00:00,84.7,6.4,29.81,South,169,8.0,11.0,5,0.00,,---,0.00,VWS V14.01,2013-03-26 21:00:00,
2013-03-26 14:05:00,85.3,6.8,29.81,SE,136,2.0,4.0,5,0.00,,---,0.00,VWS V14.01,2013-03-26 21:05:00,
2013-03-26 14:10:00,85.2,6.7,29.80,WSW,254,1.0,7.0,5,0.00,,---,0.00,VWS V14.01,2013-03-26 21:10:00,
2013-03-26 14:15:00,85.2,6.7,29.80,SE,137,1.0,7.0,5,0.00,,---,0.00,VWS V14.01,2013-03-26 21:15:00,
2013-03-26 14:20:00,85.6,7.0,29.80,SW,233,5.0,12.0,5,0.00,,---,0.00,VWS V14.01,2013-03-26 21:20:00,
2013-03-26 14:25:00,85.4,10.9,29.80,West,279,2.0,12.0,6,0.00,,---,0.00,VWS V14.01,2013-03-26 21:25:00,
2013-03-26 14:30:00,85.6,7.0,29.80,SE,127,1.0,12.0,5,0.00,,---,0.00,VWS V14.01,2013-03-26 21:30:00,
2013-03-26 14:35:00,85.1,6.7,29.79,SW,224,5.0,16.0,5,0.00,,---,0.00,VWS V14.01,2013-03-26 21:35:00,
2013-03-26 14:41:00,84.9,6.5,29.79,SSW,197,5.0,16.0,5,0.00,,---,0.00,VWS V14.01,2013-03-26 21:41:00,
2013-03-26 14:46:00,84.2,1.2,29.79,WSW,256,5.0,16.0,4,0.00,,---,0.00,VWS V14.01,2013-03-26 21:46:00,
2013-03-26 14:51:00,84.0,5.9,29.79,WSW,255,6.0,16.0,5,0.00,,---,0.00,VWS V14.01,2013-03-26 21:51:00,
2013-03-26 14:56:00,83.9,5.8,29.78,West,260,8.0,16.0,5,0.00,,---,0.00,VWS V14.01,2013-03-26 21:56:00,
2013-03-26 15:01:00,84.4,6.2,29.78,West,270,5.0,16.0,5,0.00,,---,0.00,VWS V14.01,2013-03-26 22:01:00,
2013-03-26 15:06:00,84.9,6.5,29.78,SW,221,4.0,8.0,5,0.00,,---,0.00,VWS V14.01,2013-03-26 22:06:00,
2013-03-26 15:12:00,85.0,6.6,29.78,SW,219,6.0,13.0,5,0.00,,---,0.00,VWS V14.01,2013-03-26 22:12:00,
2013-03-26 15:17:00,84.2,6.0,29.78,SW,233,8.0,13.0,5,0.00,,---,0.00,VWS V14.01,2013-03-26 22:17:00,
2013-03-26 15:22:00,83.2,5.3,29.78,West,267,7.0,14.0,5,0.00,,---,0.00,VWS V14.01,2013-03-26 22:22:00,
2013-03-26 15:27:00,82.6,4.9,29.78,SW,228,6.0,14.0,5,0.00,,---,0.00,VWS V14.01,2013-03-26 22:27:00,
2013-03-26 15:32:00,82.1,4.5,29.77,WSW,256,4.0,14.0,5,0.00,,---,0.00,VWS V14.01,2013-03-26 22:32:00,
2013-03-26 15:37:00,82.3,4.7,29.77,WSW,252,4.0,11.0,5,0.00,,---,0.00,VWS V14.01,2013-03-26 22:37:00,
2013-03-26 15:42:00,82.2,4.6,29.77,WSW,256,6.0,14.0,5,0.00,,---,0.00,VWS V14.01,2013-03-26 22:42:00,
2013-03-26 15:47:00,82.2,4.6,29.77,WSW,246,11.0,14.0,5,0.00,,---,0.00,VWS V14.01,2013-03-26 22:47:00,
2013-03-26 15:52:00,82.1,4.5,29.77,WSW,247,2.0,14.0,5,0.00,,---,0.00,VWS V14.01,2013-03-26 22:52:00,
2013-03-26 15:57:00,82.5,4.8,29.77,WSW,250,7.0,14.0,5,0.00,,---,0.00,VWS V14.01,2013-03-26 22:57:00,
2013-03-26 16:02:00,82.6,4.9,29.77,SW,228,6.0,14.0,5,0.00,,---,0.00,VWS V14.01,2013-03-26 23:02:00,
2013-03-26 16:07:00,82.9,5.1,29.77,West,269,3.0,9.0,5,0.00,,---,0.00,VWS V14.01,2013-03-26 23:07:00,
2013-03-26 16:13:00,83.5,5.5,29.77,WSW,246,5.0,9.0,5,0.00,,---,0.00,VWS V14.01,2013-03-26 23:13:00,
2013-03-26 16:18:00,83.4,0.6,29.77,WSW,257,9.0,13.0,4,0.00,,---,0.00,VWS V14.01,2013-03-26 23:18:00,
2013-03-26 16:23:00,83.2,0.5,29.76,West,281,6.0,13.0,4,0.00,,---,0.00,VWS V14.01,2013-03-26 23:23:00,
2013-03-26 16:28:00,82.8,0.2,29.77,WSW,256,7.0,15.0,4,0.00,,---,0.00,VWS V14.01,2013-03-26 23:28:00,
2013-03-26 16:33:00,82.5,0.0,29.76,West,265,3.0,15.0,4,0.00,,---,0.00,VWS V14.01,2013-03-26 23:33:00,
2013-03-26 16:38:00,82.8,5.0,29.76,WSW,239,4.0,5.0,5,0.00,,---,0.00,VWS V14.01,2013-03-26 23:38:00,
2013-03-26 16:43:00,82.8,5.0,29.76,SSW,200,6.0,11.0,5,0.00,,---,0.00,VWS V14.01,2013-03-26 23:43:00,
2013-03-26 16:48:00,82.5,4.8,29.76,SSW,211,3.0,11.0,5,0.00,,---,0.00,VWS V14.01,2013-03-26 23:48:00,
2013-03-26 16:53:00,82.7,5.0,29.76,SW,225,3.0,11.0,5,0.00,,---,0.00,VWS V14.01,2013-03-26 23:53:00,
2013-03-26 16:58:00,82.9,0.3,29.76,West,260,3.0,11.0,4,0.00,,---,0.00,VWS V14.01,2013-03-26 23:58:00,
2013-03-26 17:03:00,82.8,0.2,29.76,WSW,241,5.0,13.0,4,0.00,,---,0.00,VWS V14.01,2013-03-27 00:03:00,
2013-03-26 17:08:00,82.9,0.3,29.76,WSW,245,8.0,17.0,4,0.00,,---,0.00,VWS V14.01,2013-03-27 00:08:00,
2013-03-26 17:13:00,82.3,4.7,29.76,WSW,256,7.0,17.0,5,0.00,,---,0.00,VWS V14.01,2013-03-27 00:13:00,
2013-03-26 17:18:00,82.3,4.7,29.76,WSW,256,7.0,17.0,5,0.00,,---,0.00,VWS V14.01,2013-03-27 00:18:00,
2013-03-26 17:24:00,82.4,4.8,29.75,WSW,238,8.0,17.0,5,0.00,,---,0.00,VWS V14.01,2013-03-27 00:24:00,
2013-03-26 17:29:00,82.1,4.5,29.75,West,276,8.0,17.0,5,0.00,,---,0.00,VWS V14.01,2013-03-27 00:29:00,
2013-03-26 17:34:00,81.6,4.2,29.75,WSW,257,3.0,8.0,5,0.00,,---,0.00,VWS V14.01,2013-03-27 00:34:00,
2013-03-26 17:39:00,81.5,4.1,29.75,WSW,246,5.0,11.0,5,0.00,,---,0.00,VWS V14.01,2013-03-27 00:39:00,
2013-03-26 17:44:00,81.3,4.0,29.75,WSW,256,5.0,11.0,5,0.00,,---,0.00,VWS V14.01,2013-03-27 00:44:00,
2013-03-26 17:49:00,81.1,7.8,29.75,SW,229,3.0,11.0,6,0.00,,---,0.00,VWS V14.01,2013-03-27 00:49:00,
2013-03-26 17:54:00,80.7,3.6,29.75,WSW,251,6.0,11.0,5,0.00,,---,0.00,VWS V14.01,2013-03-27 00:54:00,
2013-03-26 17:59:00,80.4,7.3,29.75,WSW,255,3.0,11.0,6,0.00,,---,0.00,VWS V14.01,2013-03-27 00:59:00,
2013-03-26 18:04:00,79.9,7.0,29.76,WSW,253,4.0,5.0,6,0.00,,---,0.00,VWS V14.01,2013-03-27 01:04:00,
2013-03-26 18:09:00,79.5,6.7,29.75,WSW,257,4.0,11.0,6,0.00,,---,0.00,VWS V14.01,2013-03-27 01:09:00,
2013-03-26 18:14:00,79.1,6.4,29.75,SW,236,3.0,11.0,6,0.00,,---,0.00,VWS V14.01,2013-03-27 01:14:00,
2013-03-26 18:19:00,78.7,6.1,29.75,WSW,249,5.0,11.0,6,0.00,,---,0.00,VWS V14.01,2013-03-27 01:19:00,
2013-03-26 18:24:00,78.3,5.8,29.75,West,267,5.0,11.0,6,0.00,,---,0.00,VWS V14.01,2013-03-27 01:24:00,
2013-03-26 18:29:00,77.9,5.5,29.75,West,274,3.0,11.0,6,0.00,,---,0.00,VWS V14.01,2013-03-27 01:29:00,
2013-03-26 18:34:00,77.5,5.2,29.75,West,263,2.0,4.0,6,0.00,,---,0.00,VWS V14.01,2013-03-27 01:34:00,
2013-03-26 18:40:00,77.0,8.3,29.75,West,266,3.0,4.0,7,0.00,,---,0.00,VWS V14.01,2013-03-27 01:40:00,
2013-03-26 18:45:00,76.4,7.8,29.75,West,259,2.0,4.0,7,0.00,,---,0.00,VWS V14.01,2013-03-27 01:45:00,
2013-03-26 18:50:00,75.9,7.4,29.76,WSW,256,2.0,4.0,7,0.00,,---,0.00,VWS V14.01,2013-03-27 01:50:00,
2013-03-26 18:55:00,75.6,10.2,29.76,West,265,1.0,4.0,8,0.00,,---,0.00,VWS V14.01,2013-03-27 01:55:00,
2013-03-26 19:00:00,75.2,9.9,29.76,West,262,0.0,4.0,8,0.00,,---,0.00,VWS V14.01,2013-03-27 02:00:00,
2013-03-26 19:05:00,74.9,9.7,29.76,West,262,1.0,2.0,8,0.00,,---,0.00,VWS V14.01,2013-03-27 02:05:00,
2013-03-26 19:10:00,74.7,9.5,29.76,West,260,0.0,3.0,8,0.00,,---,0.00,VWS V14.01,2013-03-27 02:10:00,
2013-03-26 19:15:00,74.4,9.3,29.76,West,273,1.0,3.0,8,0.00,,---,0.00,VWS V14.01,2013-03-27 02:15:00,
2013-03-26 19:20:00,74.1,9.1,29.76,West,263,0.0,3.0,8,0.00,,---,0.00,VWS V14.01,2013-03-27 02:20:00,
2013-03-26 19:25:00,73.8,8.9,29.77,WSW,257,1.0,3.0,8,0.00,,---,0.00,VWS V14.01,2013-03-27 02:25:00,
2013-03-26 19:30:00,73.7,11.4,29.77,West,270,1.0,3.0,9,0.00,,---,0.00,VWS V14.01,2013-03-27 02:30:00,
2013-03-26 19:35:00,73.5,11.3,29.77,West,260,0.0,1.0,9,0.00,,---,0.00,VWS V14.01,2013-03-27 02:35:00,
2013-03-26 19:41:00,73.3,11.1,29.77,West,266,0.0,2.0,9,0.00,,---,0.00,VWS V14.01,2013-03-27 02:41:00,
2013-03-26 19:46:00,73.0,10.9,29.77,WSW,257,1.0,3.0,9,0.00,,---,0.00,VWS V14.01,2013-03-27 02:46:00,
2013-03-26 19:51:00,72.5,10.5,29.78,West,273,1.0,3.0,9,0.00,,---,0.00,VWS V14.01,2013-03-27 02:51:00,
2013-03-26 19:56:00,72.1,10.2,29.78,West,273,1.0,3.0,9,0.00,,---,0.00,VWS V14.01,2013-03-27 02:56:00,
2013-03-26 20:01:00,71.8,10.0,29.78,West,274,0.0,3.0,9,0.00,,---,0.00,VWS V14.01,2013-03-27 03:01:00,
2013-03-26 20:06:00,71.3,12.0,29.78,West,274,0.0,1.0,10,0.00,,---,0.00,VWS V14.01,2013-03-27 03:06:00,
2013-03-26 20:11:00,70.9,11.6,29.79,West,274,0.0,1.0,10,0.00,,---,0.00,VWS V14.01,2013-03-27 03:11:00,
2013-03-26 20:16:00,70.3,13.3,29.79,NNE,33,0.0,1.0,11,0.00,,---,0.00,VWS V14.01,2013-03-27 03:16:00,
2013-03-26 20:21:00,69.7,12.9,29.79,NE,50,0.0,2.0,11,0.00,,---,0.00,VWS V14.01,2013-03-27 03:21:00,
2013-03-26 20:26:00,69.2,12.5,29.80,NE,48,0.0,2.0,11,0.00,,---,0.00,VWS V14.01,2013-03-27 03:26:00,
2013-03-26 20:32:00,68.8,12.2,29.80,NE,49,0.0,2.0,11,0.00,,---,0.00,VWS V14.01,2013-03-27 03:32:00,
2013-03-26 20:37:00,68.1,13.6,29.80,NE,48,1.0,2.0,12,0.00,,---,0.00,VWS V14.01,2013-03-27 03:37:00,
2013-03-26 20:42:00,67.7,13.3,29.80,NE,56,1.0,2.0,12,0.00,,---,0.00,VWS V14.01,2013-03-27 03:42:00,
2013-03-26 20:47:00,67.2,14.7,29.80,NE,46,0.0,2.0,13,0.00,,---,0.00,VWS V14.01,2013-03-27 03:47:00,
2013-03-26 20:52:00,66.6,14.2,29.81,NE,46,0.0,2.0,13,0.00,,---,0.00,VWS V14.01,2013-03-27 03:52:00,
2013-03-26 20:57:00,66.4,14.1,29.81,NE,46,0.0,2.0,13,0.00,,---,0.00,VWS V14.01,2013-03-27 03:57:00,
2013-03-26 21:00:00,66.3,14.0,29.81,NE,47,0.0,2.0,13,0.00,,---,0.00,VWS V14.01,2013-03-27 04:00:00,
2013-03-26 21:01:00,66.3,14.0,29.81,NE,47,0.0,2.0,13,0.00,,---,0.00,VWS V14.01,2013-03-27 04:01:00,
2013-03-26 21:06:00,66.0,13.8,29.81,NE,46,0.0,0.0,13,0.00,,---,0.00,VWS V14.01,2013-03-27 04:06:00,
2013-03-26 21:11:00,66.2,13.9,29.82,ENE,60,0.0,1.0,13,0.00,,---,0.00,VWS V14.01,2013-03-27 04:11:00,
2013-03-26 21:16:00,65.9,13.7,29.82,North,1,0.0,2.0,13,0.00,,---,0.00,VWS V14.01,2013-03-27 04:16:00,
2013-03-26 21:21:00,65.4,13.3,29.82,WNW,301,0.0,2.0,13,0.00,,---,0.00,VWS V14.01,2013-03-27 04:21:00,
2013-03-26 21:26:00,65.5,15.1,29.82,WNW,298,0.0,2.0,14,0.00,,---,0.00,VWS V14.01,2013-03-27 04:26:00,
2013-03-26 21:31:00,65.4,13.3,29.83,WNW,298,0.0,2.0,13,0.00,,---,0.00,VWS V14.01,2013-03-27 04:31:00,
2013-03-26 21:37:00,65.1,13.1,29.83,WNW,298,0.0,0.0,13,0.00,,---,0.00,VWS V14.01,2013-03-27 04:37:00,
2013-03-26 21:42:00,64.9,12.9,29.83,WNW,298,0.0,0.0,13,0.00,,---,0.00,VWS V14.01,2013-03-27 04:42:00,
2013-03-26 21:47:00,65.4,13.3,29.83,South,190,0.0,1.0,13,0.00,,---,0.00,VWS V14.01,2013-03-27 04:47:00,
2013-03-26 21:52:00,66.2,13.9,29.83,South,178,1.0,3.0,13,0.00,,---,0.00,VWS V14.01,2013-03-27 04:52:00,
2013-03-26 21:57:00,66.6,12.4,29.83,WSW,249,0.0,3.0,12,0.00,,---,0.00,VWS V14.01,2013-03-27 04:57:00,
2013-03-26 22:02:00,66.6,12.4,29.84,SSE,163,0.0,3.0,12,0.00,,---,0.00,VWS V14.01,2013-03-27 05:02:00,
2013-03-26 22:07:00,65.7,13.5,29.84,SSE,163,0.0,1.0,13,0.00,,---,0.00,VWS V14.01,2013-03-27 05:07:00,
2013-03-26 22:12:00,64.9,14.6,29.84,NE,42,1.0,3.0,14,0.00,,---,0.00,VWS V14.01,2013-03-27 05:12:00,
2013-03-26 22:17:00,64.3,15.7,29.84,NNE,30,1.0,3.0,15,0.00,,---,0.00,VWS V14.01,2013-03-27 05:17:00,
2013-03-26 22:22:00,64.5,14.3,29.84,NNE,27,1.0,3.0,14,0.00,,---,0.00,VWS V14.01,2013-03-27 05:22:00,
2013-03-26 22:27:00,64.3,14.1,29.84,NNE,27,1.0,3.0,14,0.00,,---,0.00,VWS V14.01,2013-03-27 05:27:00,
2013-03-26 22:33:00,64.3,15.7,29.84,NNW,347,0.0,3.0,15,0.00,,---,0.00,VWS V14.01,2013-03-27 05:33:00,
2013-03-26 22:38:00,64.3,14.1,29.84,ENE,58,1.0,3.0,14,0.00,,---,0.00,VWS V14.01,2013-03-27 05:38:00,
2013-03-26 22:43:00,64.1,14.0,29.84,West,266,0.0,3.0,14,0.00,,---,0.00,VWS V14.01,2013-03-27 05:43:00,
2013-03-26 22:48:00,65.3,14.9,29.84,NE,43,0.0,3.0,14,0.00,,---,0.00,VWS V14.01,2013-03-27 05:48:00,
2013-03-26 22:53:00,64.7,14.4,29.84,North,9,1.0,3.0,14,0.00,,---,0.00,VWS V14.01,2013-03-27 05:53:00,
2013-03-26 22:58:00,64.4,15.8,29.84,NNE,12,1.0,3.0,15,0.00,,---,0.00,VWS V14.01,2013-03-27 05:58:00,
2013-03-26 23:03:00,64.6,15.9,29.84,NW,316,1.0,3.0,15,0.00,,---,0.00,VWS V14.01,2013-03-27 06:03:00,
2013-03-26 23:08:00,63.8,15.3,29.84,NNW,338,0.0,1.0,15,0.00,,---,0.00,VWS V14.01,2013-03-27 06:08:00,
2013-03-26 23:13:00,63.5,16.5,29.85,North,359,0.0,2.0,16,0.00,,---,0.00,VWS V14.01,2013-03-27 06:13:00,
2013-03-26 23:18:00,63.6,16.6,29.85,North,360,0.0,2.0,16,0.00,,---,0.00,VWS V14.01,2013-03-27 06:18:00,
2013-03-26 23:23:00,63.4,16.5,29.84,NNE,14,1.0,2.0,16,0.00,,---,0.00,VWS V14.01,2013-03-27 06:23:00,
2013-03-26 23:28:00,63.2,17.7,29.85,NE,49,1.0,2.0,17,0.00,,---,0.00,VWS V14.01,2013-03-27 06:28:00,
2013-03-26 23:33:00,62.9,17.5,29.85,NE,50,1.0,1.0,17,0.00,,---,0.00,VWS V14.01,2013-03-27 06:33:00,
2013-03-26 23:39:00,62.8,16.0,29.84,NE,50,2.0,2.0,16,0.00,,---,0.00,VWS V14.01,2013-03-27 06:39:00,
2013-03-26 23:44:00,62.8,16.0,29.84,ENE,58,1.0,2.0,16,0.00,,---,0.00,VWS V14.01,2013-03-27 06:44:00,
2013-03-26 23:49:00,62.9,16.0,29.85,NNE,13,2.0,2.0,16,0.00,,---,0.00,VWS V14.01,2013-03-27 06:49:00,
2013-03-26 23:54:00,61.9,18.0,29.85,NNW,338,0.0,2.0,18,0.00,,---,0.00,VWS V14.01,2013-03-27 06:54:00,
2013-03-26 23:59:00,61.4,17.5,29.85,NNW,342,2.0,2.0,18,0.00,,---,0.00,VWS V14.01,2013-03-27 06:59:00,